Theta_e
310 314 315 316 308 305 306 307 312 317 317 316 323 323 323 321 323 323 311 314 316 318 319 320 319 320 323 325 327 327 328 329 330 330 330 330 330 331 332 333 332 334 335 335 335 335 335 335 333
311 315 316 314 305 305 303 307 313 314 313 313 316 317 320 321 318 312 311 313 315 316 317 318 318 318 319 321 325 326 327 328 328 327 328 329 330 330 330 330 331 331 332 333 334 334 335 335 334
313 315 314 310 303 304 305 306 309 311 312 313 313 314 316 314 314 312 312 312 314 315 316 316 315 316 318 318 321 324 325 322 324 325 325 326 327 328 330 330 330 330 331 332 332 333 334 334 335
314 315 312 310 310 307 306 313 311 308 310 312 312 311 311 311 312 312 311 311 313 313 314 314 314 314 314 316 318 321 316 316 317 319 316 319 323 324 326 329 330 331 331 330 330 332 333 333 333
315 313 307 309 309 309 307 313 312 310 311 311 312 311 308 307 309 310 310 308 312 312 313 312 312 313 313 311 312 312 311 312 311 312 313 312 311 314 317 321 325 328 329 331 331 330 330 331 332
314 310 309 307 307 307 310 314 313 311 311 308 309 306 307 306 308 310 308 308 309 311 312 313 310 311 313 311 312 313 311 310 307 306 306 308 307 306 308 310 313 318 323 327 329 330 330 330 331
311 307 308 309 308 309 310 313 311 310 308 308 310 309 305 304 305 307 307 306 307 309 310 310 310 309 309 308 310 306 308 307 303 302 302 301 304 304 305 303 306 308 309 314 319 324 327 329 330
314 308 312 308 308 309 311 313 311 312 310 311 310 308 306 306 303 303 302 302 303 305 305 306 306 306 307 306 303 301 301 301 303 302 299 297 298 299 300 302 302 302 303 304 306 310 315 322 326
314 312 311 311 310 311 311 311 309 309 309 309 308 308 307 305 303 301 300 299 299 300 301 302 303 301 300 301 300 298 297 297 298 298 297 297 297 297 297 297 298 298 299 300 301 303 304 307 311
311 310 309 309 307 312 311 310 309 308 305 305 307 308 307 304 302 302 302 300 298 298 298 299 299 298 297 297 296 296 296 296 296 296 296 296 296 296 296 296 297 298 298 298 298 299 300 301 302
312 311 308 309 311 312 310 309 310 307 306 308 310 310 307 304 302 302 302 303 302 298 297 297 296 296 295 295 295 295 295 295 295 295 295 295 295 295 295 295 295 296 296 296 297 297 297 298 298
312 310 311 311 312 311 309 309 305 307 312 314 313 312 309 305 304 303 302 301 300 299 298 296 295 294 294 293 294 294 294 293 293 293 293 293 293 294 294 294 294 294 295 295 295 295 296 296 296
310 310 311 311 311 310 309 307 307 307 312 311 311 310 309 308 305 302 301 299 299 298 297 296 295 294 293 293 293 293 293 293 293 293 293 293 293 293 293 293 293 293 293 294 294 294 294 295 295
309 309 309 310 309 308 307 306 307 311 310 310 308 308 308 308 306 302 299 299 297 297 297 295 294 293 293 292 292 292 292 292 292 292 292 292 292 292 292 292 292 291 292 292 292 293 293 293 293
307 308 306 305 307 307 307 305 305 310 307 307 305 305 306 306 304 304 304 300 299 297 296 294 293 292 292 292 291 292 292 291 291 291 291 290 290 290 290 291 291 291 291 291 291 291 292 292 292
307 305 306 305 304 306 307 307 304 304 304 305 305 303 303 303 304 302 302 301 298 296 294 293 292 291 291 291 290 290 290 290 289 290 289 289 289 289 289 289 289 289 289 289 290 290 291 291 291
302 302 303 304 304 304 304 304 304 302 301 301 303 303 302 302 301 300 299 299 298 297 295 293 291 291 290 289 289 289 289 288 288 288 288 288 287 287 287 287 287 288 288 288 289 289 290 290 290
302 302 302 303 304 304 303 303 303 303 301 302 304 303 302 301 301 299 298 297 296 295 294 292 291 289 289 289 288 288 287 287 287 287 287 287 287 286 286 286 286 286 286 286 286 287 288 289 289
301 301 302 303 303 305 303 304 304 303 299 300 302 302 301 298 299 299 298 297 296 294 293 292 291 289 289 288 288 288 288 287 287 286 286 286 286 286 285 285 285 285 285 285 285 285 285 286 287
302 302 301 300 299 303 300 300 300 301 300 302 302 301 300 298 297 297 296 296 296 294 293 292 290 289 289 288 288 288 287 287 286 286 286 285 285 285 285 285 285 285 285 284 284 285 285 285 286
299 300 300 300 296 297 294 299 297 297 296 297 297 298 300 300 298 296 295 295 295 293 292 292 290 289 289 288 287 287 287 286 286 286 286 285 285 285 285 285 284 284 284 284 284 284 284 284 284
298 297 297 297 297 299 295 306 304 304 304 295 292 294 295 297 296 296 295 294 294 293 292 291 290 289 288 288 287 287 288 287 287 286 286 285 285 285 284 284 284 284 284 284 284 284 284 284 284
299 294 295 295 294 295 297 297 302 302 306 292 289 292 294 296 297 296 294 294 293 292 292 291 290 288 288 288 287 287 287 287 287 286 286 285 285 284 284 284 284 283 283 283 283 283 283 283 283
293 295 294 293 296 297 299 300 303 299 294 292 288 291 293 294 293 293 292 291 291 292 291 291 289 288 287 287 287 287 287 287 287 286 285 285 284 284 283 283 283 283 283 283 283 283 283 283 283
294 297 304 308 297 304 295 300 301 292 287 285 286 288 291 293 293 293 292 290 291 291 291 290 289 288 287 287 287 287 286 286 286 285 285 284 283 283 283 283 283 282 282 282 282 282 282 282 282
293 295 305 310 307 302 293 296 299 286 286 287 289 290 291 292 292 293 292 292 291 291 290 289 289 288 287 287 286 286 286 286 285 285 284 283 283 282 282 282 282 282 282 282 282 282 282 282 282
297 298 294 300 300 303 302 300 297 295 293 290 291 292 292 292 292 292 291 291 290 290 290 289 289 288 287 286 286 285 285 285 284 284 283 283 282 282 282 281 282 282 282 281 281 281 281 281 282
293 298 303 301 304 306 298 298 301 296 295 294 292 292 292 292 291 291 290 290 289 289 288 288 288 288 287 286 285 285 284 284 284 283 283 282 282 282 282 281 281 281 281 281 281 281 281 281 281
292 294 298 299 301 304 304 297 291 295 296 295 292 292 292 294 293 291 290 290 289 289 288 288 288 287 286 286 286 285 284 284 284 283 282 282 282 281 281 281 281 280 280 280 280 280 281 281 281
292 292 296 302 297 301 302 299 286 290 291 291 292 293 294 293 291 290 289 289 288 288 288 287 287 286 286 286 285 285 284 284 283 282 282 282 281 281 280 280 280 280 280 280 280 280 280 280 281
Wind_Speed
5 8 7 7 3 4 4 7 1 2 3 2 9 5 6 3 5 4 11 19 26 30 28 22 16 17 19 16 17 15 12 12 11 8 7 8 8 8 7 5 5 5 5 6 10 10 11 12 11
6 9 8 4 4 1 6 5 8 7 2 9 8 4 0 2 4 3 16 23 29 29 28 24 16 13 14 13 12 8 8 13 12 8 7 7 8 8 10 9 9 8 7 6 5 5 8 10 13
6 10 4 4 4 7 6 7 6 3 11 7 5 4 3 4 7 6 11 27 30 28 25 20 14 13 11 11 10 13 13 13 13 11 9 8 6 8 7 9 11 10 10 8 8 8 8 8 9
7 5 1 3 9 7 6 1 5 7 7 7 5 3 5 9 5 10 18 29 31 29 26 19 16 13 12 10 11 15 12 12 12 10 9 9 8 8 7 9 9 10 11 11 9 9 11 11 10
9 2 1 3 7 5 4 2 14 6 6 7 10 3 4 7 10 14 23 31 32 30 27 22 16 16 14 11 11 11 10 10 9 10 9 7 8 8 8 9 10 9 10 10 12 12 11 11 10
5 2 0 6 6 5 4 6 11 7 5 6 8 4 5 8 14 18 27 31 31 30 28 24 17 16 16 15 15 13 10 8 7 6 7 8 8 8 10 10 11 11 11 11 12 12 12 13 12
6 4 5 4 4 5 5 11 6 9 9 9 5 6 4 14 17 20 28 30 31 29 26 24 21 20 17 15 16 11 9 8 6 5 5 5 8 9 10 11 11 12 12 13 14 13 13 12 12
7 4 3 6 5 8 6 13 4 13 9 5 12 7 4 15 22 24 28 29 30 29 27 25 22 19 19 16 13 10 10 8 8 8 5 4 5 7 9 10 11 12 13 15 15 15 15 16 15
8 1 5 7 8 5 5 5 4 4 5 10 13 8 6 10 26 29 30 30 31 30 29 26 23 20 18 15 14 11 10 8 7 6 5 6 6 6 6 7 9 9 10 12 14 14 16 16 17
5 4 9 7 6 4 5 8 8 6 7 7 12 17 14 16 27 31 34 35 34 33 31 27 24 21 19 17 14 12 10 9 7 6 6 7 7 7 7 8 8 9 11 11 11 12 14 15 15
7 7 5 6 11 7 4 4 8 6 5 15 24 28 22 23 29 32 33 35 35 32 31 28 26 23 20 17 15 13 11 10 9 7 6 6 7 6 6 7 6 7 6 7 8 9 10 11 12
4 12 7 2 6 5 4 5 6 16 14 9 20 16 26 29 32 34 35 36 35 34 31 29 27 24 22 18 16 14 12 10 9 8 7 6 6 6 7 7 7 7 7 7 6 7 8 8 9
5 4 5 13 10 9 6 9 8 17 26 26 15 19 26 31 33 33 33 33 33 34 32 31 28 26 23 20 17 14 12 10 8 7 6 6 7 7 6 6 6 6 6 7 7 6 6 7 8
2 3 6 7 10 9 6 3 6 23 17 25 26 25 26 30 34 35 37 36 36 34 33 31 28 26 23 20 17 15 13 11 10 9 8 8 7 7 7 7 7 6 6 6 6 6 6 6 7
3 5 5 7 7 7 7 5 11 30 11 15 21 24 27 32 35 37 35 37 37 36 34 32 29 26 23 21 19 16 14 12 10 8 6 5 5 5 5 6 6 7 8 7 7 7 6 6 7
4 1 3 1 5 2 8 5 8 11 15 19 22 25 28 32 34 35 35 35 37 37 35 32 29 26 24 21 18 15 13 10 8 6 5 4 3 3 3 4 4 4 5 7 7 7 6 5 5
2 5 5 8 7 4 6 4 2 4 9 15 20 25 29 31 34 36 36 36 38 37 36 34 30 27 25 21 18 15 12 9 6 4 3 3 3 3 4 5 5 5 5 6 6 6 6 5 5
6 5 4 6 3 3 4 14 11 14 9 20 22 27 31 35 36 36 35 35 37 37 35 33 30 27 25 22 19 15 12 10 7 5 3 2 3 4 6 7 7 8 8 8 8 9 8 6 5
2 3 5 6 4 4 9 12 14 9 13 20 30 35 33 30 30 32 35 36 37 38 38 35 32 30 28 25 21 18 14 10 7 5 5 4 4 4 6 7 7 7 8 9 9 9 10 9 7
5 6 10 7 1 6 7 16 11 11 10 24 29 18 21 24 28 31 36 38 39 42 40 37 34 31 27 23 21 18 15 12 9 7 5 4 5 6 6 6 7 7 8 8 9 9 11 12 12
5 6 5 9 4 3 6 11 6 5 7 7 9 14 16 26 30 33 37 40 40 43 43 39 35 31 28 25 22 19 16 13 10 8 6 6 7 7 7 7 7 8 8 9 9 11 11 11 12
5 3 4 2 3 4 3 9 4 5 4 8 15 16 8 22 25 29 35 39 42 44 41 37 34 31 29 26 23 18 15 13 11 8 7 7 8 8 9 9 8 9 9 10 11 11 12 11 10
4 3 1 1 2 4 2 2 5 2 3 5 9 21 7 14 20 24 30 33 38 42 42 37 33 31 29 26 23 20 17 14 11 9 8 8 9 9 10 9 10 10 10 11 11 11 11 11 11
1 2 3 3 2 2 5 7 6 2 2 7 6 14 4 10 14 16 21 27 35 38 38 36 33 31 29 26 23 19 17 14 11 9 8 8 10 10 10 11 11 11 11 11 12 12 12 12 13
2 3 3 3 1 6 4 2 7 5 2 3 7 13 3 12 12 15 19 26 31 37 39 37 35 33 30 27 24 20 16 13 11 9 8 9 10 11 12 12 12 12 12 13 13 14 14 14 15
1 1 2 5 2 4 2 5 5 4 5 5 7 7 5 6 8 12 17 22 27 34 38 38 36 33 30 26 23 19 16 13 10 9 9 9 11 11 12 13 12 12 13 14 15 15 16 16 16
2 1 3 3 4 2 3 5 5 3 5 6 6 4 4 3 6 11 17 21 25 32 38 39 36 32 29 26 22 19 15 11 10 9 9 11 12 12 13 13 13 13 14 15 15 16 16 17 17
4 6 3 2 4 4 4 5 3 2 2 3 2 3 2 5 9 13 18 20 23 27 35 37 33 30 28 24 20 16 12 10 9 9 10 12 13 13 14 14 14 14 15 15 16 16 17 18 17
3 2 3 1 3 3 2 5 4 6 7 2 2 2 2 4 8 13 16 18 21 25 33 36 33 30 27 23 20 17 12 10 10 10 12 14 14 14 15 14 15 15 15 15 16 17 17 19 18
2 5 4 3 4 4 2 5 5 2 2 1 9 6 4 7 7 9 11 15 20 24 29 35 33 30 27 23 19 15 12 11 11 12 13 15 14 15 14 15 15 16 16 16 17 17 17 19 19
Wind_Direction
195 174 165 165 71 62 258 250 241 217 244 193 141 152 187 111 170 197 162 168 170 178 181 172 178 194 208 202 199 211 229 226 234 229 218 201 187 188 188 180 172 168 175 137 159 155 141 131 142
199 176 176 150 112 163 257 222 219 206 197 149 150 110 102 242 187 174 161 167 165 176 181 185 170 176 206 217 220 222 206 195 209 197 184 190 196 201 214 212 212 214 223 203 186 167 175 175 162
191 183 188 140 158 200 223 215 204 148 157 158 148 185 207 213 203 192 179 171 168 174 173 170 164 159 157 199 213 225 215 191 195 202 192 197 203 212 208 222 226 214 220 221 216 217 204 204 187
177 189 94 140 223 256 212 220 147 129 186 180 166 193 218 201 186 194 175 174 171 173 174 167 165 162 152 179 199 209 191 187 185 199 195 187 206 216 220 219 231 231 227 231 238 233 226 221 200
190 206 204 247 247 254 239 190 169 167 179 186 183 225 236 213 201 182 177 176 178 177 180 172 164 173 165 148 157 150 165 185 178 196 207 214 195 205 222 234 235 232 244 235 241 240 247 249 257
174 127 30 243 254 274 273 202 171 177 184 167 185 165 233 206 192 182 178 178 181 186 186 185 161 168 182 178 193 203 210 214 204 216 219 228 226 220 217 227 236 235 237 244 247 247 242 246 251
150 123 228 250 252 274 227 178 188 185 172 213 196 181 219 199 183 181 178 182 184 188 190 190 184 175 174 177 204 190 220 243 252 253 243 228 249 248 245 232 233 245 245 241 245 249 256 256 255
191 132 226 230 215 266 182 171 222 178 212 202 189 215 228 203 180 178 180 185 189 191 194 196 192 189 191 194 193 192 205 214 235 252 257 236 233 249 264 266 258 249 242 240 240 240 243 247 251
175 134 232 224 176 242 164 189 176 206 185 190 199 215 232 188 181 182 185 187 191 193 197 199 197 194 196 197 198 197 193 201 212 230 250 275 279 275 267 258 265 261 250 249 246 243 242 241 244
167 177 225 206 190 219 193 197 184 179 186 221 224 226 225 191 190 193 195 193 193 194 194 199 198 199 198 195 195 198 203 210 216 223 234 246 262 269 274 274 266 262 264 261 256 247 242 242 241
194 218 201 234 219 210 196 218 198 174 230 215 221 218 213 200 199 202 204 205 201 198 199 199 202 204 206 204 203 201 202 204 210 216 226 239 253 267 276 282 280 275 269 261 258 255 246 241 240
217 244 217 250 223 188 198 178 203 204 237 247 238 238 216 208 210 209 208 206 201 201 202 203 203 204 203 204 204 202 201 203 207 212 217 225 237 251 262 273 282 284 284 277 262 254 257 255 248
234 261 237 238 237 225 218 223 223 248 248 248 235 223 218 216 217 215 215 209 204 203 202 202 203 202 203 203 203 203 206 210 219 231 244 259 269 274 275 276 280 280 276 277 279 277 265 258 260
261 264 261 258 250 235 209 255 182 259 256 242 242 236 221 220 219 214 213 210 207 206 205 203 202 202 202 203 203 203 205 207 211 215 224 236 251 265 276 286 290 293 294 294 291 286 282 275 269
303 306 305 227 222 221 198 242 223 252 240 224 229 230 223 222 219 222 221 213 210 207 205 204 202 201 201 201 203 204 206 209 212 216 221 230 239 247 260 272 286 299 305 305 302 301 301 299 293
295 119 284 282 145 221 158 262 255 261 239 230 233 230 225 223 225 223 220 216 210 208 203 202 201 200 199 200 202 203 204 205 208 211 222 238 252 257 268 278 282 294 305 306 308 309 311 306 286
307 261 219 312 191 136 187 270 257 251 230 246 237 234 231 227 223 222 220 215 211 207 204 202 201 200 199 197 197 199 199 199 208 223 241 268 292 312 325 328 329 323 322 323 319 318 316 321 319
229 236 246 242 208 195 211 251 265 253 235 250 250 244 235 231 226 220 218 215 211 207 204 203 199 198 196 195 193 192 193 198 206 222 246 269 293 317 333 340 348 349 351 352 349 347 344 343 336
244 229 250 250 199 188 238 250 261 261 236 254 256 248 243 233 229 223 218 214 207 205 202 201 199 198 199 196 193 194 197 200 210 219 234 253 273 305 323 329 335 340 342 345 353 357 358 356 357
261 280 274 286 182 203 290 271 245 249 233 234 252 260 236 228 223 217 214 210 207 203 202 200 200 200 199 202 199 198 196 198 207 217 233 255 283 302 309 315 317 324 332 336 341 346 353 355 359
227 215 248 257 322 233 313 278 238 270 259 302 311 284 254 229 218 213 210 208 204 202 201 200 199 199 198 197 198 196 196 198 203 216 239 261 279 291 296 301 305 312 319 324 331 336 343 352 356
275 234 259 270 24 259 3 292 197 224 277 40 11 1 273 211 213 214 210 206 204 202 202 200 199 198 198 199 200 203 207 205 207 221 242 262 279 289 294 297 299 304 311 318 322 328 332 338 341
260 41 76 105 165 356 210 232 264 221 237 329 340 5 10 214 212 209 211 210 205 203 200 200 199 199 201 201 203 203 202 205 212 222 242 263 273 278 284 287 291 297 304 309 314 318 321 324 326
54 16 51 60 107 301 226 176 291 6 258 303 326 357 40 192 201 206 207 204 203 203 200 199 199 201 202 202 204 206 208 209 214 227 244 261 272 277 279 281 285 292 298 302 306 308 309 308 308
60 68 307 285 6 233 325 133 254 281 211 256 306 310 173 174 183 196 202 201 205 201 198 198 201 202 203 204 205 206 208 212 221 234 251 262 267 271 274 275 281 286 292 296 299 299 297 295 294
60 345 204 278 253 286 358 237 257 232 291 296 314 352 80 140 176 201 206 208 207 204 200 201 203 203 205 205 205 205 208 215 227 243 260 268 271 272 274 277 280 285 289 291 292 292 291 288 285
23 137 152 284 221 224 226 288 338 39 17 8 11 31 67 142 209 216 214 216 213 207 203 204 204 204 206 205 206 208 212 221 233 252 271 274 273 273 274 278 280 282 285 288 289 288 285 283 281
202 165 198 180 273 252 301 286 222 45 353 309 304 270 213 200 217 221 221 220 216 213 207 205 208 209 207 206 208 212 224 240 251 268 276 273 271 272 274 276 281 284 287 288 289 288 284 281 279
164 201 207 234 205 243 284 269 217 180 170 202 253 273 235 243 232 224 220 223 222 215 211 207 207 209 207 207 210 215 229 241 255 272 275 271 268 268 269 273 276 279 282 284 286 287 285 281 278
137 193 168 226 243 236 206 260 222 248 271 262 278 278 295 288 268 246 234 227 222 216 211 208 207 208 209 208 211 221 235 246 258 266 269 265 263 264 268 272 277 279 281 285 286 285 284 282 278